Regional Weather Roundup
Issued by NWS

Home | Current Version | Previous Version | Text Only | Print | Product List | Glossary On
Versions: 1 2 3 4 5 6 7 8 9 10 11 12 13 14 15 16 17 18 19 20 21 22 23 24 25 26 27 28 29 30 31 32 33 34 35 36 37 38 39 40 41 42 43 44 45 46 47 48 49 50
000
ASUS45 KSLC 311610
RWRUT
UTAH REGIONAL WEATHER ROUNDUP
NATIONAL WEATHER SERVICE SALT LAKE CITY UT
1000 AM MDT FRI JUL 31 2015

UTZ001>011-023>025-311700-

NORTHERN UTAH

CITY           SKY/WX    TMP DP  RH WIND       PRES   REMARKS
BRIGHAM CITY   SUNNY     72  37  27 CALM      30.27S
HILL AFB       MOSUNNY   72  35  26 E16       30.29S
LOGAN          SUNNY     67  34  29 CALM      30.31S
OGDEN          SUNNY     75  35  23 CALM      30.27R
PROVO AIRPORT  MOSUNNY   70  37  30 CALM      30.29F
SALT LAKE CITY MOSUNNY   77  35  21 E5        30.25S
VERNAL         SUNNY     75  28  17 N6        30.33F
WENDOVER       SUNNY     81  28  15 SE3       30.25S
HEBER CITY     SUNNY     63  32  31 CALM      30.38F
WEST JORDAN    SUNNY     75  37  25 SE3       30.28S

$$

UTZ012>022-026-027-311700-

SOUTHERN/CENTRAL UTAH

CITY           SKY/WX    TMP DP  RH WIND       PRES   REMARKS
BLANDING       CLOUDY    69  55  60 S3        30.47R
BRYCE CANYON   PTSUNNY   71  47  42 SE7       30.49S
CEDAR CITY     PTSUNNY   81  33  17 NW5       30.32S
DELTA          SUNNY     76  23  14 CALM      30.28S
HANKSVILLE     MOSUNNY   82  48  30 S3        30.26S
MILFORD        PTSUNNY   80  25  13 NW5       30.28S
MOAB/CYNLANDS  SUNNY     82  52  35 S3        30.25F
PRICE          SUNNY     76  21  12 SE6       30.35S
ST GEORGE      SUNNY     88  52  29 CALM      30.15S
KANAB          CLOUDY    75  52  43 NW6       30.34F

$$

REGIONAL REPORTS     COLORADO/ARIZONA

CITY           SKY/WX    TMP DP  RH WIND       PRES   REMARKS
CRAIG, CO      SUNNY     72  40  31 VRB3      30.38F
GRAND JUNCTION SUNNY     76  40  27 S7        30.29F
RIFLE          SUNNY     74  36  25 VRB3      30.34F
MONTROSE       MOSUNNY   77  44  30 VRB3      30.37F
CORTEZ         MOSUNNY   71  58  63 CALM      30.40S
PAGE, AZ       PTSUNNY   85  55  35 NE6       30.25S
GRAND CANYON   MOSUNNY   76  51  41 MISG      30.41F
KINGMAN        SUNNY     86  53  32 S7        30.16S
FLAGSTAFF      SUNNY     71  55  56 CALM      30.45S

$$

REGIONAL REPORTS    NEVADA/IDAHO/WYOMING

CITY           SKY/WX    TMP DP  RH WIND       PRES   REMARKS
LAS VEGAS, NV  PTSUNNY   92  54  27 SE3       30.01S HX  90
ELY            MOSUNNY   74  22  14 N3        30.39S
ELKO           PTSUNNY   68  28  22 CALM      30.32F
POCATELLO, ID  SUNNY     69  41  36 NW5       30.30F
BURLEY         SUNNY     71  45  39 E5        30.26F
EVANSTON, WY   MOSUNNY   72  30  21 NE5       30.45F
ROCK SPRINGS   SUNNY     67  29  24 S3        30.43F
KEMMERER       SUNNY     72  28  20 CALM      30.47F

$$


USA.gov is the U.S. government's official web portal to all federal, state and local government web resources and services.